Regional Weather Roundup
Issued by NWS

Home | Current Version | Previous Version | Graphics & Text | Print | Product List | Glossary On
Versions: 1 2 3 4 5 6 7 8 9 10 11 12 13 14 15 16 17 18 19 20 21 22 23 24 25 26 27 28 29 30 31 32 33 34 35 36 37 38 39 40 41 42 43 44 45 46 47 48 49 50
613
ASUS43 KIND 231100
RWRIN

WEATHER ROUNDUP FOR INDIANA
NATIONAL WEATHER SERVICE INDIANAPOLIS IN
700 AM EDT SUN JUL 23 2017

NOTE: "FAIR" INDICATES FEW OR NO CLOUDS BELOW 12,000 FEET WITH NO
SIGNIFICANT WEATHER AND/OR OBSTRUCTIONS TO VISIBILITY.

* - STATION DOES NOT REPORT WEATHER SUCH AS PRECIPITATION OR FOG.

+ - STATION NOT QUALITY CONTROLLED BY THE NATIONAL WEATHER SERVICE.
    USE DATA WITH CAUTION...ESPECIALLY DEWPOINT AND RELATIVE
    HUMIDITY OBSERVATIONS.

INZ001>003-010>013-019-020-231200-
NORTHWEST INDIANA

CITY           SKY/WX    TMP DP  RH WIND       PRES   REMARKS
GARY /AIRPORT/ PTCLDY    72  70  94 CALM      29.79S
MICHIGAN CITY+ FOG       66  66 100 CALM      29.80S VSB 3/4
MONTICELLO +   MOCLDY    73  71  95 CALM      29.79F
RENSSELAER +   CLOUDY    73  72  94 NW3       29.80S

$$

LMZ046-743>745-231200-
SOUTHERN LAKE MICHIGAN

STATION/POSITION TIME  TEMP    WIND        PRES    WAVE
                       AIR SEA DIR/SP/G            HT
                 (UTC) (F)     (DEG/KT/KT) (MB)    (FT)
BURNS HARBOR     1040   73     290/  2/  2 1009.5S
MICHIGAN CITY    1030   72      20/  4/  4   N/A
5NW MICH CITY    1050   73 75  360/  2/  2   N/A     0

$$

INZ004-005-014>016-021>024-231200-
NORTH CENTRAL INDIANA

CITY           SKY/WX    TMP DP  RH WIND       PRES   REMARKS
GOSHEN         CLOUDY    69  66  90 NE5       29.80S FOG
SOUTH BEND     CLOUDY    69  69 100 SW3       29.81S
WARSAW +       PTCLDY    68  68 100 CALM      29.81S FOG

$$

INZ006>009-017-018-025>027-231200-
NORTHEAST INDIANA

CITY           SKY/WX    TMP DP  RH WIND       PRES   REMARKS
FORT WAYNE     CLOUDY    72  69  90 CALM      29.81S
KENDALLVILLE + FOG       65  65 100 NE3       29.82S VSB<1/4

$$

INZ028-029-035-036-043>045-051>053-231200-
WEST CENTRAL INDIANA

CITY           SKY/WX    TMP DP  RH WIND       PRES   REMARKS
LAFAYETTE      CLOUDY    73  73 100 W3        29.80R
TERRE HAUTE    CLOUDY    71  69  93 CALM      29.82R

$$

INZ030>032-037>040-046>048-054>057-064-065-231200-
CENTRAL INDIANA

CITY           SKY/WX    TMP DP  RH WIND       PRES   REMARKS
COLUMBUS       MOCLDY    72  68  88 S7        29.82
FRANKFORT +    CLOUDY    74  73  95 CALM      29.83R FOG
GREENWOOD *+   CLOUDY   N/A N/A N/A S3        29.83R
INDIANAPOLIS   CLOUDY    72  69  90 SW7       29.82R
-EAGLE CREEK   CLOUDY    72  68  87 VRB3      29.81R
KOKOMO +       CLOUDY    74  72  93 CALM      29.82R
MT COMFORT *+  CLOUDY    70  70 100 CALM      29.82R
SHELBYVILLE    CLOUDY    73  68  84 S10       29.82R

$$

INZ033-034-041-042-049-050-058-059-231200-
EAST CENTRAL INDIANA

CITY           SKY/WX    TMP DP  RH WIND       PRES   REMARKS
MUNCIE         CLOUDY    76  72  87 VRB5      29.81R
RICHMOND +     CLOUDY    72  70  94 S5        29.84R

$$

INZ060-061-067>069-081>083-085>088-231200-
SOUTHWEST INDIANA

CITY           SKY/WX    TMP DP  RH WIND       PRES   REMARKS
EVANSVILLE     TSTM      74  70  87 S13G24    29.82F
HUNTINGBURG *+ TSTM      71  69  93 SE10      29.83F

$$

INZ062-063-066-070>080-084-089>092-231200-
SOUTH CENTRAL AND SOUTHEAST INDIANA

CITY           SKY/WX    TMP DP  RH WIND       PRES   REMARKS
BLOOMINGTON    CLOUDY    73  68  84 S10       29.82R
MADISON *+     CLOUDY    70  66  88 SW3       29.87F
SEYMOUR +      CLOUDY    73  70  88 SW8       29.83F

$$





USA.gov is the U.S. government's official web portal to all federal, state and local government web resources and services.